TimeEST,TemperatureF,Dew PointF,Humidity,Sea Level PressureIn,VisibilityMPH,Wind Direction,Wind SpeedMPH,Gust SpeedMPH,PrecipitationIn,Events,Conditions,WindDirDegrees,DateUTC
12:53 AM,25.0,15.1,66,30.59,10.0,Calm,Calm,-,N/A,,Clear,0,2005-01-16 05:53:00
1:53 AM,25.0,16.0,69,30.57,10.0,North,3.5,-,N/A,,Clear,10,2005-01-16 06:53:00
2:53 AM,25.0,17.1,72,30.56,10.0,Calm,Calm,-,N/A,,Clear,0,2005-01-16 07:53:00
3:53 AM,24.1,16.0,71,30.54,10.0,North,3.5,-,N/A,,Clear,10,2005-01-16 08:53:00
4:53 AM,25.0,16.0,69,30.53,10.0,North,4.6,-,N/A,,Mostly Cloudy,10,2005-01-16 09:53:00
5:53 AM,25.0,17.1,72,30.51,10.0,North,4.6,-,N/A,,Overcast,10,2005-01-16 10:53:00
6:53 AM,25.0,17.1,72,30.50,10.0,NNE,3.5,-,N/A,,Overcast,20,2005-01-16 11:53:00
7:53 AM,25.0,17.1,72,30.48,10.0,NNE,4.6,-,N/A,,Overcast,20,2005-01-16 12:53:00
8:53 AM,25.0,18.0,75,30.46,10.0,NNE,4.6,-,N/A,,Overcast,30,2005-01-16 13:53:00
9:53 AM,26.1,19.0,75,30.43,10.0,NNE,4.6,-,N/A,,Overcast,30,2005-01-16 14:53:00
10:53 AM,27.0,19.9,75,30.39,10.0,North,6.9,-,N/A,,Overcast,360,2005-01-16 15:53:00
11:53 AM,28.9,21.9,75,30.33,10.0,North,10.4,-,N/A,,Mostly Cloudy,360,2005-01-16 16:53:00
12:53 PM,28.9,21.9,75,30.30,10.0,NNW,6.9,-,N/A,,Overcast,340,2005-01-16 17:53:00
1:20 PM,28.4,21.2,74,30.24,10.0,North,8.1,-,N/A,,Overcast,350,2005-01-16 18:20:00
1:53 PM,28.0,21.9,78,30.28,10.0,NNW,9.2,-,N/A,,Overcast,340,2005-01-16 18:53:00
2:53 PM,28.0,23.0,81,30.26,8.0,North,6.9,-,N/A,,Overcast,360,2005-01-16 19:53:00
3:21 PM,26.6,23.0,86,30.21,3.0,Variable,5.8,-,0.00,Snow,Light Snow,0,2005-01-16 20:21:00
3:30 PM,26.6,23.0,86,30.21,2.5,NNW,6.9,-,0.00,Snow,Light Snow,340,2005-01-16 20:30:00
3:35 PM,26.6,23.0,86,30.21,1.8,NNW,9.2,-,0.00,Snow,Light Snow,330,2005-01-16 20:35:00
3:53 PM,26.1,23.0,88,30.27,1.0,NNW,6.9,-,0.00,Snow,Light Snow,340,2005-01-16 20:53:00
3:59 PM,26.6,23.0,86,30.22,0.8,NNW,5.8,-,0.00,Snow,Light Snow,330,2005-01-16 20:59:00
4:19 PM,24.8,23.0,93,30.23,0.5,NW,6.9,-,0.02,Fog-Snow,Light Snow,320,2005-01-16 21:19:00
4:31 PM,24.8,23.0,93,30.23,0.2,Variable,6.9,-,0.03,Fog-Snow,Snow,0,2005-01-16 21:31:00
4:38 PM,24.8,23.0,93,30.23,0.2,Variable,4.6,-,0.04,Fog-Snow,Light Snow,0,2005-01-16 21:38:00
4:46 PM,24.8,21.2,86,30.24,0.5,NW,5.8,-,0.04,Fog-Snow,Light Snow,320,2005-01-16 21:46:00
4:53 PM,25.0,21.9,88,30.30,0.5,Variable,5.8,-,0.05,Fog-Snow,Snow,0,2005-01-16 21:53:00
5:53 PM,23.0,19.9,88,30.34,0.8,NW,9.2,16.1,0.03,Snow,Light Snow,320,2005-01-16 22:53:00
6:03 PM,23.0,19.4,86,30.29,1.0,NW,9.2,-,0.00,Snow,Light Snow,320,2005-01-16 23:03:00
6:27 PM,21.2,19.4,93,30.30,1.8,NW,5.8,-,0.01,Snow,Light Snow,310,2005-01-16 23:27:00
6:53 PM,21.9,19.0,89,30.38,1.2,NW,9.2,-,0.02,Snow,Light Snow,310,2005-01-16 23:53:00
7:34 PM,21.2,17.6,86,30.34,1.8,NW,4.6,-,0.00,Snow,Light Snow,310,2005-01-17 00:34:00
7:53 PM,21.0,18.0,88,30.40,3.0,NW,5.8,-,0.00,Snow,Light Snow,310,2005-01-17 00:53:00
8:46 PM,19.4,15.8,86,30.37,5.0,NW,9.2,16.1,0.00,,Haze,320,2005-01-17 01:46:00
8:53 PM,19.9,15.1,81,30.42,7.0,Variable,5.8,-,0.00,,Overcast,0,2005-01-17 01:53:00
9:19 PM,19.4,14.0,80,30.38,4.0,NNW,8.1,-,0.00,Snow,Light Snow,330,2005-01-17 02:19:00
9:53 PM,19.0,12.9,77,30.45,3.0,NNW,8.1,-,0.01,Snow,Light Snow,340,2005-01-17 02:53:00
10:06 PM,19.4,14.0,80,30.39,2.0,NW,4.6,-,0.00,Snow,Light Snow,320,2005-01-17 03:06:00
10:18 PM,17.6,14.0,86,30.40,2.5,NW,8.1,-,0.00,Snow,Light Snow,310,2005-01-17 03:18:00
10:21 PM,17.6,12.2,79,30.40,3.0,Variable,6.9,-,0.00,Snow,Light Snow,0,2005-01-17 03:21:00
10:45 PM,17.6,12.2,79,30.40,2.0,NW,6.9,-,0.00,Snow,Light Snow,310,2005-01-17 03:45:00
10:53 PM,18.0,12.0,78,30.46,3.0,Variable,5.8,-,0.00,Snow,Light Snow,0,2005-01-17 03:53:00
11:53 PM,17.1,9.0,71,30.48,9.0,Variable,5.8,-,0.00,,Overcast,0,2005-01-17 04:53:00